GEFSNE_500_meanwind_060.txt.gz
Wind_Speed
44 43 45 44 44 42 41 40 39 39 39 39 39 39 38 36 35 34 33 31 31 30 30 29 28 27 27 27 26 26 26 26 27 28 28 28 29 29
43 43 43 44 45 45 44 43 41 41 40 39 38 39 38 37 37 35 34 32 32 31 30 30 29 29 28 28 28 28 27 27 27 28 28 28 28 27
41 42 42 42 44 44 45 44 42 43 41 40 40 40 40 38 37 36 36 35 34 33 32 31 30 30 30 29 27 27 27 27 28 28 27 27 27 26
39 41 41 41 42 44 43 42 42 43 42 41 41 41 40 39 38 37 36 36 35 33 33 32 31 30 29 28 26 26 27 27 28 27 26 26 26 25
34 36 38 40 40 41 42 42 41 42 41 40 40 40 41 40 39 38 38 37 36 35 34 33 31 29 28 27 27 27 27 27 27 25 24 24 23 22
29 31 33 37 38 38 39 40 40 40 40 40 40 39 39 40 40 39 38 37 35 33 33 32 31 29 28 27 26 26 26 25 24 23 23 22 21 19
27 28 30 31 33 35 36 37 39 40 40 40 40 40 39 39 38 37 36 34 33 32 31 30 29 27 27 27 26 25 24 23 22 22 21 19 18 18
24 25 27 28 28 30 32 33 35 37 38 38 38 37 36 36 37 36 34 33 32 31 30 28 27 26 26 26 25 24 23 22 22 20 19 18 17 17
20 22 25 27 27 29 29 29 31 33 33 34 35 35 35 35 34 33 33 31 30 28 28 28 27 26 26 25 24 23 22 21 20 18 17 16 16 16
18 19 21 24 25 25 26 26 27 28 28 30 32 32 31 31 31 31 30 28 27 27 27 26 26 25 25 24 22 22 21 20 18 17 17 16 15 14
15 17 19 21 22 22 22 22 23 24 25 26 25 25 25 25 25 25 26 26 26 25 25 25 25 24 23 22 21 20 19 18 17 16 15 14 14 13
11 14 16 18 19 19 20 21 21 22 23 23 22 22 23 23 23 23 24 25 25 24 23 23 22 21 20 20 19 19 18 17 16 15 14 13 12 11
7 10 12 14 16 17 18 19 20 21 21 22 21 21 22 23 23 24 23 23 22 21 21 21 20 19 18 18 17 17 16 15 14 13 12 12 11 11
4 6 9 11 14 16 17 18 19 20 20 21 21 21 22 23 23 23 23 21 20 20 19 19 19 19 17 16 16 15 14 13 13 12 12 11 11 10
2 5 7 10 12 14 15 16 18 19 19 20 21 20 21 21 21 20 21 20 20 19 18 17 17 17 16 15 14 14 13 12 12 11 11 11 11 10
5 6 7 10 12 13 14 15 17 17 18 18 18 18 18 19 19 18 18 18 18 17 17 16 16 15 15 14 14 13 12 12 11 11 11 11 11 10
8 7 7 9 11 12 13 15 16 16 16 16 16 16 17 16 16 15 15 15 15 15 15 14 14 13 13 13 12 12 11 11 11 11 11 11 11 11
9 8 8 9 11 12 12 13 14 14 14 15 15 15 15 15 15 14 14 14 14 14 14 14 14 13 13 12 11 11 11 11 11 11 11 11 11 11
10 9 9 10 11 11 11 12 12 12 13 13 13 13 15 15 15 14 13 13 13 13 14 14 13 12 12 11 11 11 11 10 10 10 11 11 11 12
9 9 9 9 10 10 10 11 11 11 12 12 12 13 13 14 13 13 12 12 12 12 12 11 11 11 11 11 11 11 11 10 10 11 11 12 12 12
8 7 8 8 8 9 9 10 10 10 11 12 12 13 12 12 12 12 12 12 11 11 11 11 11 11 11 11 11 11 11 11 11 12 12 12 13 13
5 5 6 6 7 7 8 8 9 9 10 11 11 11 11 11 11 11 11 11 11 11 11 11 11 11 11 11 11 11 12 12 12 12 12 13 13 14
1 2 3 5 6 6 7 7 8 9 9 10 10 10 10 10 10 10 10 11 11 11 11 11 11 11 11 11 11 12 12 12 12 13 13 14 14 15

GEFSNE_500_meanwind_066.txt.gz
Wind_Speed
42 44 45 47 47 47 46 45 45 44 43 42 42 43 43 42 40 40 38 37 35 34 33 32 30 30 29 28 27 26 25 24 25 25 24 24 24 24
40 42 43 45 47 48 47 47 47 46 45 43 42 42 43 43 42 41 40 39 38 35 33 33 32 31 30 29 28 27 27 26 26 25 25 24 24 24
38 40 42 44 46 48 48 48 49 48 45 44 43 44 44 43 42 42 40 40 39 37 35 34 33 32 31 30 29 29 28 27 27 27 26 25 25 24
35 37 39 42 44 46 48 49 49 49 47 46 44 44 43 42 42 42 41 39 39 38 37 36 34 32 32 31 31 30 29 28 28 27 26 25 24 24
32 35 37 39 42 44 46 47 47 47 47 47 46 45 43 43 42 41 41 41 39 38 38 36 35 35 34 33 32 31 31 29 28 27 26 25 24 23
29 32 35 37 39 41 43 46 46 45 44 44 46 47 45 45 44 42 41 41 40 39 38 37 37 36 35 33 33 32 30 29 28 27 26 25 23 23
26 29 31 34 36 38 40 42 45 45 44 43 44 46 46 45 45 43 41 41 40 39 38 37 36 36 35 35 34 33 31 29 28 27 25 23 22 22
22 25 28 31 33 35 36 38 40 42 42 42 42 42 44 45 43 43 42 42 41 40 39 38 36 36 36 35 34 33 30 28 27 26 25 23 22 21
18 21 23 27 30 32 34 36 37 37 38 39 40 40 41 42 42 42 41 41 40 40 40 39 38 37 36 35 33 30 29 28 27 25 24 22 21 20
15 17 20 23 27 30 31 33 35 34 34 36 36 36 38 39 41 40 39 39 39 40 39 37 37 37 36 33 31 29 28 26 25 24 22 21 20 19
12 14 17 20 23 25 28 30 32 33 32 33 33 33 34 36 37 39 38 38 38 37 37 37 36 34 33 31 28 27 26 25 23 22 21 19 18 18
9 11 13 16 19 21 23 26 29 30 30 31 32 32 33 35 36 37 37 37 37 37 37 35 34 32 30 29 27 26 24 23 22 21 19 19 18 18
5 7 10 12 15 18 20 22 24 27 29 29 29 31 32 35 36 36 35 35 34 34 33 32 30 29 28 27 26 25 25 23 22 20 20 20 19 18
4 4 6 8 11 14 17 19 20 22 24 26 27 29 30 30 31 32 32 32 31 31 30 29 28 27 27 26 25 24 23 22 20 20 20 19 18 18
6 3 3 5 7 9 12 15 17 20 22 22 23 24 25 26 27 28 29 29 29 28 27 26 25 25 25 24 24 23 22 21 21 20 20 19 18 17
7 5 3 1 4 7 9 12 15 16 19 21 21 22 24 24 24 25 26 26 27 25 25 25 25 25 24 24 23 23 22 21 20 20 19 18 18 17
8 5 3 1 3 5 8 10 13 15 17 19 20 20 21 22 22 22 24 25 25 24 24 24 23 23 22 22 22 22 21 20 19 19 18 18 18 17
8 6 3 1 2 4 6 9 11 13 15 17 18 19 20 22 22 22 22 23 23 23 23 23 23 23 22 21 21 20 20 19 19 19 18 18 17 17
7 5 3 1 2 4 6 7 9 11 13 15 16 18 19 20 20 21 21 21 21 22 22 22 22 22 21 21 20 20 19 19 19 19 18 18 17 17
7 5 4 3 3 4 6 7 9 11 13 14 15 16 17 18 19 19 19 20 20 20 20 20 20 21 21 21 20 20 19 19 18 18 18 18 17 17
8 6 5 4 5 6 7 8 10 11 13 14 14 15 16 17 18 18 19 20 20 20 20 20 20 20 20 20 20 20 20 20 19 18 18 17 17 17
10 8 7 6 7 7 7 9 10 12 13 14 15 16 16 17 18 18 19 19 20 20 20 20 20 20 20 20 20 20 20 20 19 19 18 18 18 18
13 11 10 10 9 10 10 10 11 13 14 15 16 16 17 17 18 19 19 19 20 20 20 20 20 20 20 20 20 20 19 19 19 19 19 19 18 18

GEFSNE_500_meanwind_072.txt.gz
Wind_Speed
32 34 35 37 39 40 41 42 41 41 41 41 42 40 40 40 38 38 39 39 39 38 36 35 34 32 31 29 28 27 26 26 25 25 24 25 24 24
30 32 34 36 38 39 41 42 42 42 42 41 42 43 41 40 40 41 40 39 39 39 38 37 36 34 33 32 31 30 29 28 27 26 26 26 26 26
28 30 32 34 36 37 39 41 42 43 42 41 42 42 43 41 41 42 43 42 40 40 39 39 38 37 35 34 33 32 31 30 29 28 28 28 27 27
25 27 29 32 34 36 38 40 41 42 43 42 43 43 43 43 42 43 43 43 42 42 41 39 39 38 37 36 35 34 33 32 31 29 28 28 28 28
22 24 26 29 31 34 36 38 39 41 42 43 43 44 43 44 43 43 43 42 42 42 42 41 40 38 38 37 37 36 35 33 32 30 30 29 28 28
19 21 23 26 29 31 33 35 37 39 41 42 43 44 44 44 44 44 44 44 43 42 42 42 41 40 39 38 37 37 35 34 33 32 32 31 30 29
17 19 21 24 26 29 31 33 35 37 39 40 41 42 43 45 45 45 46 46 46 43 42 42 42 41 41 40 38 37 36 35 35 34 33 31 30 29
15 16 18 21 24 26 28 31 33 35 36 37 39 40 41 43 44 45 45 46 45 43 42 42 42 42 41 40 39 38 36 35 34 33 32 31 30 29
12 14 16 18 21 23 26 29 31 33 34 35 37 38 39 41 42 43 44 44 43 43 43 43 43 43 42 41 39 38 37 36 35 34 33 32 31 30
12 13 14 15 18 20 23 25 27 29 31 33 35 36 37 38 39 40 40 41 42 42 42 42 41 41 40 41 40 39 38 37 35 33 33 32 31 30
14 13 12 13 14 16 19 22 25 27 30 31 33 34 35 36 37 39 38 38 38 39 40 40 40 40 40 39 38 37 37 36 35 34 32 32 30 28
15 13 12 11 12 13 15 18 20 23 26 28 30 32 33 33 34 36 36 36 37 38 39 39 39 39 39 38 37 36 36 36 35 34 33 32 30 28
16 14 13 11 11 11 12 14 17 19 22 24 27 29 31 32 33 33 33 33 34 35 36 36 36 36 37 36 36 36 36 36 34 33 32 30 28 27
18 16 14 12 11 11 11 11 13 15 18 20 23 26 28 29 30 32 33 33 33 33 34 35 34 35 35 35 34 35 35 34 33 32 30 28 26 25
18 16 14 12 11 11 10 10 10 11 14 16 18 21 24 25 27 29 31 33 34 34 34 35 34 33 33 33 34 34 34 33 32 31 29 27 26 25
19 17 15 13 12 11 10 9 8 9 11 13 16 18 20 22 23 26 27 29 31 32 33 34 33 32 31 31 32 32 32 31 30 29 28 27 26 25
18 17 15 14 12 11 10 9 7 7 9 11 13 16 18 20 22 23 26 28 30 31 32 32 32 32 31 31 31 30 30 29 28 27 26 25 25 24
19 18 16 14 13 11 10 9 8 8 8 9 11 13 15 18 20 22 23 25 26 28 29 29 29 30 30 30 29 28 28 28 27 26 25 25 25 24
19 18 16 15 14 12 11 10 9 9 9 10 11 12 13 16 18 20 21 22 23 25 26 28 29 29 28 28 28 28 27 27 25 25 25 25 24 24
20 19 18 16 15 13 12 11 10 10 10 10 11 11 13 15 16 18 20 20 21 23 24 25 26 27 27 27 27 27 27 26 25 25 24 24 23 23
22 21 20 18 17 15 14 13 12 12 11 11 12 11 12 13 15 16 18 19 20 22 22 23 24 25 26 26 26 26 25 25 25 24 24 24 23 23
25 23 22 21 19 18 17 15 14 14 13 13 14 14 14 14 14 15 17 18 19 20 21 22 23 23 24 24 24 24 24 25 25 24 24 23 23 23
29 27 26 24 23 22 20 19 18 17 16 15 15 15 16 16 17 16 17 18 19 19 20 21 22 23 23 23 23 23 24 24 24 24 24 24 24 24

GEFSNE_500_meanwind_078.txt.gz
Wind_Speed
23 25 28 31 33 35 37 40 41 42 42 41 42 43 43 43 41 41 41 42 42 41 40 39 38 37 34 33 32 30 29 28 27 26 25 24 24 23
20 23 26 28 31 33 35 38 40 42 42 43 43 44 44 45 45 44 42 42 42 42 41 40 39 38 37 36 34 33 32 30 29 28 27 27 26 26
18 21 24 27 29 32 34 36 39 41 42 43 45 45 45 46 46 46 47 45 44 43 43 42 41 40 40 38 37 36 35 34 32 31 30 29 28 27
15 18 21 24 27 30 32 34 38 40 41 43 45 46 47 46 47 47 46 47 47 46 46 45 43 42 42 41 40 38 37 36 35 34 33 31 31 29
14 16 18 21 24 27 30 33 35 38 40 42 45 46 47 47 47 47 47 47 46 46 46 46 45 44 43 41 40 39 38 38 37 36 35 33 32 31
13 14 16 19 21 24 28 31 33 35 37 39 42 45 46 47 47 47 47 47 46 47 46 46 45 45 45 43 42 40 39 38 38 37 36 34 33 32
14 13 14 16 18 20 23 27 30 32 34 36 39 42 44 44 45 46 47 46 46 46 46 46 46 45 45 44 43 41 41 40 39 38 36 36 35 33
14 14 13 13 15 17 20 22 26 29 32 33 36 39 41 43 44 45 47 47 46 47 46 45 45 45 43 43 43 42 41 41 40 39 38 37 36 35
15 14 13 13 13 14 16 19 22 25 28 30 33 35 38 41 43 44 45 47 46 47 48 46 45 44 44 44 43 42 42 41 41 40 39 38 36 35
15 14 13 13 13 13 14 16 19 22 24 27 29 32 35 38 40 43 43 45 46 47 48 47 45 45 45 44 44 43 43 44 43 42 40 39 37 36
16 15 14 14 13 12 12 14 16 20 22 24 27 29 32 34 36 38 40 41 43 44 45 46 46 45 45 45 45 44 44 44 43 42 41 40 39 37
17 16 15 14 14 12 12 12 13 16 19 22 24 26 28 31 33 34 36 38 40 40 42 43 44 45 45 44 44 44 43 43 43 42 42 40 39 39
19 17 16 15 13 12 11 11 12 13 16 18 21 23 25 27 30 32 33 35 36 37 39 41 42 42 42 42 42 42 42 43 42 42 42 42 41 39
19 18 16 15 14 13 12 11 11 12 13 16 19 21 23 25 27 29 32 34 35 36 37 39 39 39 40 40 40 41 41 42 43 43 43 42 41 40
19 18 17 16 15 14 13 12 12 12 12 14 16 18 21 23 25 27 30 32 34 34 35 37 38 38 39 40 39 40 41 41 42 43 43 43 42 41
19 19 18 17 16 15 14 13 13 12 12 13 14 16 18 20 22 25 27 30 32 33 35 35 37 38 38 39 39 39 40 40 40 41 41 41 40 40
20 20 19 18 17 16 15 15 14 13 13 13 13 14 16 18 20 22 25 27 29 32 33 35 36 37 38 38 39 39 39 39 39 39 40 40 39 38
20 20 20 19 18 18 17 16 15 15 15 15 15 15 16 17 18 20 23 25 27 28 30 32 34 35 36 37 37 38 38 39 38 39 39 38 37 38
22 21 21 20 20 19 19 18 18 17 17 17 17 17 17 18 19 19 21 23 25 27 29 30 31 33 34 35 35 37 36 37 38 38 37 37 37 37
23 23 23 22 22 21 21 20 20 19 19 19 19 19 19 20 20 20 21 22 23 25 26 28 29 31 32 33 34 34 35 35 36 36 36 36 37 37
25 25 25 25 24 24 23 23 23 22 22 21 21 21 20 21 21 21 21 21 22 23 24 26 28 29 30 32 33 33 33 34 36 36 36 36 36 36
28 28 28 28 27 27 27 27 26 26 25 25 24 23 23 22 22 23 23 23 23 24 25 25 26 28 29 30 31 32 33 34 35 35 36 36 37 36
30 31 31 31 31 30 30 30 30 30 29 29 28 27 26 25 25 25 25 25 25 25 26 26 27 28 29 30 31 31 33 33 34 35 36 36 36 35

GEFSNE_500_meanwind_084.txt.gz
Wind_Speed
13 16 19 21 24 27 29 32 34 35 35 36 38 40 41 42 42 42 42 42 41 40 39 39 38 37 36 35 34 33 32 31 30 29 28 27 26 24
10 13 16 19 21 24 26 29 32 34 35 36 38 39 42 43 43 43 43 43 43 42 42 42 41 40 39 38 37 36 35 33 32 32 31 29 28 27
10 11 13 16 18 22 24 27 30 31 33 36 39 40 42 43 44 44 44 45 44 45 45 44 43 43 43 42 40 39 38 36 35 34 33 32 31 30
10 10 11 13 15 18 21 24 27 29 32 36 39 40 43 44 44 44 45 45 46 46 46 46 46 45 45 45 44 43 41 39 38 37 36 35 34 33
10 10 11 12 14 16 18 21 24 27 30 34 37 40 42 44 45 45 45 45 46 47 46 47 47 48 47 46 45 45 44 43 42 40 39 38 37 36
11 10 10 11 13 15 16 19 21 24 26 30 34 38 41 43 45 46 46 47 47 47 48 48 47 48 48 47 48 47 46 46 45 44 42 41 40 39
12 11 11 11 12 14 15 17 19 21 23 26 30 34 38 41 43 45 47 47 48 48 49 49 48 48 48 48 48 48 47 47 47 46 45 44 42 41
13 13 12 12 12 13 13 15 17 18 20 22 25 29 33 36 40 43 45 47 47 48 49 50 50 50 49 49 48 48 48 48 47 47 46 45 44 43
14 14 13 13 13 13 14 14 15 16 18 19 21 23 27 31 34 37 41 43 45 46 49 48 49 49 50 50 49 49 49 49 48 48 47 46 45 43
15 15 14 14 13 13 14 14 15 15 16 18 19 21 23 26 29 32 35 39 42 44 45 45 46 47 48 49 49 48 48 48 48 48 48 49 48 46
16 15 15 15 14 14 14 14 14 14 15 16 18 20 21 23 26 28 30 32 35 39 41 41 43 44 44 45 46 47 46 48 49 49 49 49 48 48
16 16 15 15 15 15 14 14 14 14 14 15 16 18 20 22 23 25 27 29 31 34 37 39 40 42 43 44 45 46 46 46 46 46 46 47 47 47
17 17 16 16 15 15 15 15 15 14 15 15 15 16 18 21 22 24 26 27 29 31 33 36 37 39 41 42 44 44 45 45 46 46 46 46 47 47
18 18 17 17 16 16 15 15 15 16 15 15 16 16 17 19 21 23 24 26 28 29 31 34 35 37 38 40 42 44 45 45 45 46 47 47 46 46
18 18 18 17 17 17 16 16 16 16 16 16 16 17 17 18 19 21 23 25 26 28 29 31 33 36 38 39 40 42 44 45 45 45 45 46 46 46
19 19 19 18 18 18 17 18 17 17 17 17 17 17 18 18 19 20 21 22 24 26 28 29 31 33 35 37 38 39 41 42 44 45 45 45 45 46
20 20 20 20 19 19 19 19 19 19 19 18 18 18 18 19 20 20 21 21 23 25 27 29 31 33 34 35 36 37 38 39 41 42 43 44 44 43
22 22 22 21 21 20 20 20 20 20 20 20 20 20 20 21 22 22 22 22 23 24 26 27 29 30 33 35 36 37 37 38 40 41 42 43 44 44
23 23 23 22 22 22 22 22 22 22 22 22 22 22 22 22 23 23 24 24 25 25 26 27 29 30 31 33 34 36 36 38 39 40 42 42 43 43
24 24 24 24 24 24 24 25 25 25 24 24 24 24 24 24 25 25 25 26 26 27 27 28 29 30 31 32 32 33 35 37 38 38 39 40 41 41
26 26 26 26 26 27 27 27 27 28 28 28 28 27 27 27 27 28 28 28 28 29 28 29 29 30 31 31 31 32 33 35 36 37 37 38 38 39
28 28 29 29 29 30 30 30 30 31 31 31 31 32 32 32 31 31 31 31 31 31 31 31 31 31 31 31 31 31 32 33 35 36 37 37 38 38
30 31 31 31 32 32 33 34 34 35 35 35 35 36 36 36 36 36 36 35 35 35 34 34 33 33 33 34 33 33 33 34 34 35 35 36 37 37

GEFSNE_500_meanwind_090.txt.gz
Wind_Speed
8 10 12 15 17 20 22 23 26 28 29 32 34 35 36 37 36 38 38 38 38 38 37 36 36 36 35 34 33 33 32 32 31 30 29 29 28 28
6 8 10 12 14 17 20 21 23 25 27 31 33 34 36 37 37 37 38 39 39 40 40 40 39 39 38 37 37 36 36 35 34 33 33 32 31 31
6 7 8 10 12 15 17 20 22 24 25 28 31 33 35 36 37 38 39 40 41 42 42 41 42 42 41 40 40 40 38 38 37 36 36 35 34 34
6 7 8 9 11 13 15 18 20 22 24 25 28 30 33 35 36 38 39 41 42 42 44 43 43 43 43 43 43 43 42 41 41 40 39 38 37 37
7 7 7 8 10 11 13 16 18 20 22 24 26 29 31 33 35 37 39 40 41 42 43 44 45 45 46 45 46 45 45 44 43 43 42 41 40 39
7 7 7 8 9 11 12 14 16 19 21 23 25 27 30 31 34 36 38 39 41 43 43 45 46 47 48 47 47 47 47 46 46 46 45 44 43 41
9 8 8 8 9 10 12 13 15 17 19 21 23 25 27 30 31 34 36 38 40 42 43 45 45 47 48 48 48 48 49 49 48 48 47 47 46 45
10 9 9 9 10 10 11 12 14 15 17 19 21 23 25 27 29 31 33 35 38 40 41 43 45 45 47 48 48 48 50 50 50 50 49 49 48 48
11 10 10 10 11 11 12 12 13 14 16 17 19 20 22 23 25 27 30 32 34 38 40 41 43 44 45 46 47 47 47 48 49 50 50 51 50 49
12 11 11 11 12 12 13 13 14 14 15 17 17 19 20 21 22 24 26 29 31 33 37 38 39 41 43 44 45 46 46 46 47 47 48 49 49 49
13 13 13 13 13 13 13 14 14 15 15 16 17 18 18 19 20 22 24 26 28 30 33 35 36 39 40 42 43 45 46 46 46 46 47 47 47 47
15 14 14 15 14 14 14 15 15 15 15 16 16 17 18 18 19 20 21 23 25 27 30 32 34 35 36 38 40 42 43 44 45 46 46 47 47 47
17 16 16 16 16 15 15 16 16 16 16 16 16 17 18 19 19 20 20 21 23 25 27 30 32 33 33 34 36 39 41 42 44 44 44 45 47 47
19 18 18 17 17 17 16 16 17 17 17 17 17 18 18 19 20 20 21 22 23 24 26 27 29 32 33 34 35 37 38 39 42 43 44 45 47 48
20 20 19 19 19 18 18 18 18 18 18 18 18 19 19 20 21 21 22 22 23 25 26 27 29 30 32 33 34 35 36 37 39 41 42 44 45 46
21 21 21 20 20 20 20 19 19 19 19 19 19 20 20 20 21 22 23 23 24 25 26 27 28 29 30 32 33 34 35 36 38 40 41 43 44 45
22 22 22 22 21 21 21 21 20 20 20 21 21 21 21 22 22 23 24 24 25 25 26 27 28 29 30 31 32 34 35 36 37 38 40 41 43 44
24 24 23 23 22 22 22 22 22 22 22 22 22 23 23 23 24 24 25 25 26 27 28 29 30 30 31 31 33 34 35 35 36 37 39 39 41 42
26 25 25 24 24 23 23 23 23 23 23 24 24 24 25 25 26 26 27 27 28 28 29 30 31 32 33 33 33 35 36 37 37 38 38 39 40 41
28 27 27 26 26 25 25 25 26 26 26 26 26 26 27 27 28 29 29 30 30 31 31 32 33 33 34 34 34 35 37 38 38 39 39 40 41 41
29 29 29 28 28 28 28 28 28 28 29 29 29 30 30 30 31 31 32 33 33 34 35 35 36 36 36 36 36 36 37 39 39 39 39 39 40 41
31 31 30 30 30 30 30 30 31 31 31 31 32 32 33 34 34 35 35 36 37 37 38 39 39 40 40 40 39 38 38 39 39 40 40 40 39 39
33 32 32 32 32 32 33 33 33 33 34 34 34 35 36 36 37 38 39 39 40 41 41 42 43 43 43 43 43 42 42 41 41 42 42 41 41 40

GEFSNE_500_meanwind_096.txt.gz
Wind_Speed
5 6 7 9 11 13 14 15 17 20 21 23 25 26 27 28 29 29 30 31 31 31 31 31 31 31 32 32 31 31 31 30 30 30 29 28 28 27
6 6 6 8 10 12 14 14 16 18 19 21 23 25 25 27 28 29 30 31 32 32 32 32 32 33 33 34 34 33 33 33 32 32 32 31 31 30
6 6 7 7 8 10 13 14 16 17 18 20 22 24 25 26 28 29 30 31 33 33 34 34 34 34 35 35 36 36 35 35 35 35 35 34 33 33
7 6 7 7 8 9 11 13 14 16 17 19 21 23 25 26 27 29 30 31 33 35 36 37 37 36 37 37 37 37 38 37 38 38 38 37 36 36
8 7 7 7 8 9 10 12 13 15 17 18 20 21 24 25 26 28 30 31 32 33 35 37 38 38 38 39 39 39 40 40 40 40 40 40 39 39
9 8 7 7 8 9 10 11 12 14 15 17 18 20 22 24 25 27 28 30 31 33 34 36 38 39 39 40 41 41 41 41 42 42 42 42 42 42
10 9 8 8 8 9 10 11 12 13 14 16 17 19 20 22 24 25 27 28 30 31 32 33 36 37 38 39 40 41 41 42 43 43 44 44 44 44
10 10 9 9 9 10 10 11 12 13 14 15 16 17 18 20 21 23 25 25 27 30 31 32 33 35 37 39 41 42 43 43 43 43 44 44 45 46
11 11 10 10 11 11 11 12 12 13 14 15 15 16 17 19 20 21 23 25 26 28 30 31 33 33 34 37 39 41 43 44 44 44 44 44 45 45
13 12 12 12 12 12 12 13 14 14 15 16 17 18 18 19 20 21 22 24 25 27 28 29 31 32 33 34 36 38 41 43 44 44 44 44 44 44
14 13 13 13 13 13 14 14 15 15 16 17 18 18 19 19 20 21 21 22 24 26 27 27 29 30 31 32 33 35 37 39 41 42 42 43 43 44
15 14 14 15 15 15 15 15 15 16 16 17 18 18 19 19 20 21 21 21 23 24 26 26 27 28 28 30 31 33 34 35 37 39 41 42 42 43
16 16 16 16 16 16 16 16 17 17 17 17 18 18 19 19 20 20 20 21 21 23 24 25 26 27 27 27 29 31 32 33 34 36 38 39 41 42
17 16 17 17 17 17 18 18 18 18 18 18 19 19 19 19 20 21 21 22 22 22 23 25 25 26 27 28 29 30 32 33 33 33 35 37 38 40
18 18 18 18 18 18 19 19 19 19 20 20 20 20 20 21 21 21 22 22 23 23 24 25 26 27 28 28 29 30 32 33 34 34 35 35 36 37
19 20 20 20 20 20 20 20 20 20 20 21 21 21 21 22 22 22 22 23 23 24 25 25 26 27 28 29 30 31 32 33 34 35 35 35 35 36
21 21 21 22 22 22 22 22 22 21 21 21 21 22 22 22 23 23 23 24 24 24 25 26 27 28 29 29 30 31 32 33 34 35 36 36 37 38
22 23 23 23 23 23 23 23 23 23 23 23 23 23 23 24 24 25 25 26 26 27 27 27 28 29 29 31 32 32 33 34 35 36 37 38 38 39
24 24 24 24 24 25 25 25 25 25 25 25 25 25 25 26 26 26 27 27 28 29 29 30 30 30 31 31 33 35 35 36 37 37 39 39 40 40
26 26 26 26 27 27 27 27 27 27 27 27 27 27 27 28 28 28 29 29 30 30 31 32 33 33 34 34 34 36 38 38 39 39 40 41 41 42
28 28 28 28 29 29 29 29 29 29 29 29 29 29 29 30 30 31 31 32 32 33 33 34 35 36 36 36 36 37 38 40 40 41 42 42 42 42
30 30 30 30 31 31 32 32 31 31 31 31 31 31 31 32 32 33 34 34 35 36 36 37 38 38 38 38 38 38 39 40 41 42 43 44 44 43
32 32 32 33 33 33 33 33 33 32 32 32 32 33 33 33 34 35 36 36 37 37 38 38 39 40 41 41 41 41 41 42 42 42 43 45 46 46